TimeEDT,TemperatureF,Dew PointF,Humidity,Sea Level PressureIn,VisibilityMPH,Wind Direction,Wind SpeedMPH,Gust SpeedMPH,PrecipitationIn,Events,Conditions,WindDirDegrees,DateUTC
12:56 AM,60.1,44.1,55,30.08,10.0,NNE,8.1,-,N/A,,Clear,30,2013-09-09 04:56:00
1:56 AM,59.0,42.1,53,30.09,10.0,NE,8.1,-,N/A,,Clear,50,2013-09-09 05:56:00
2:56 AM,55.9,43.0,62,30.11,10.0,East,3.5,-,N/A,,Clear,100,2013-09-09 06:56:00
3:56 AM,53.1,43.0,69,30.13,10.0,ENE,5.8,-,N/A,,Clear,60,2013-09-09 07:56:00
4:56 AM,54.0,43.0,66,30.15,10.0,East,4.6,-,N/A,,Clear,100,2013-09-09 08:56:00
5:56 AM,51.1,42.1,71,30.18,10.0,Calm,Calm,-,N/A,,Partly Cloudy,0,2013-09-09 09:56:00
6:56 AM,51.1,43.0,74,30.20,10.0,Calm,Calm,-,N/A,,Scattered Clouds,0,2013-09-09 10:56:00
7:56 AM,60.1,46.9,62,30.22,10.0,NE,4.6,-,N/A,,Scattered Clouds,50,2013-09-09 11:56:00
8:56 AM,63.0,46.0,54,30.23,10.0,ENE,8.1,-,N/A,,Mostly Cloudy,70,2013-09-09 12:56:00
9:56 AM,64.9,43.0,45,30.23,10.0,East,5.8,-,N/A,,Mostly Cloudy,100,2013-09-09 13:56:00
10:56 AM,66.0,42.1,42,30.23,10.0,Calm,Calm,-,N/A,,Mostly Cloudy,0,2013-09-09 14:56:00
11:56 AM,68.0,43.0,40,30.23,10.0,Variable,3.5,-,N/A,,Mostly Cloudy,0,2013-09-09 15:56:00
12:56 PM,68.0,42.1,39,30.22,10.0,SSE,8.1,-,N/A,,Mostly Cloudy,160,2013-09-09 16:56:00
1:56 PM,68.0,43.0,40,30.20,10.0,Variable,6.9,-,N/A,,Mostly Cloudy,0,2013-09-09 17:56:00
2:56 PM,68.0,46.0,45,30.20,10.0,SSW,10.4,-,N/A,,Mostly Cloudy,200,2013-09-09 18:56:00
3:56 PM,68.0,48.0,49,30.20,10.0,South,10.4,-,N/A,,Mostly Cloudy,190,2013-09-09 19:56:00
4:56 PM,68.0,46.9,47,30.20,10.0,South,8.1,-,N/A,,Mostly Cloudy,190,2013-09-09 20:56:00
5:56 PM,66.0,48.9,54,30.18,10.0,South,9.2,-,N/A,,Mostly Cloudy,170,2013-09-09 21:56:00
6:56 PM,64.9,50.0,58,30.18,10.0,South,6.9,-,N/A,,Mostly Cloudy,180,2013-09-09 22:56:00
7:56 PM,64.0,50.0,60,30.17,10.0,South,5.8,-,N/A,,Scattered Clouds,190,2013-09-09 23:56:00
8:56 PM,64.0,52.0,65,30.17,10.0,South,5.8,-,N/A,,Mostly Cloudy,190,2013-09-10 00:56:00
9:56 PM,64.9,54.0,68,30.17,10.0,South,6.9,-,N/A,,Mostly Cloudy,190,2013-09-10 01:56:00
10:56 PM,66.0,55.9,70,30.17,10.0,South,8.1,-,N/A,,Mostly Cloudy,190,2013-09-10 02:56:00
11:56 PM,66.0,57.0,73,30.17,10.0,South,10.4,-,N/A,,Overcast,190,2013-09-10 03:56:00